Regional Weather Roundup
Issued by NWS Cleveland, OH

Home | Current Version | Previous Version | Text Only | Print | Product List | Glossary Off
Versions: 1 2 3 4 5 6 7 8 9 10 11 12 13 14 15 16 17 18 19 20 21 22 23 24 25 26 27 28 29 30 31 32 33 34 35 36 37 38 39 40 41 42 43 44 45 46 47 48 49 50

000
ASUS41 KCLE 270002
RWRCLE
OHIO REGIONAL WEATHER ROUNDUP
NATIONAL WEATHER SERVICE CLEVELAND, OH
800 PM EDT FRI MAY 26 2017

NOTE: "FAIR" INDICATES FEW OR NO CLOUDS BELOW 12,000 FEET WITH NO
SIGNIFICANT WEATHER AND/OR OBSTRUCTIONS TO VISIBILITY.

OHZ001>008-015>018-024>027-034-035-043-044-270100-
   NORTHWEST OHIO

CITY           SKY/WX    TMP DP  RH WIND       PRES   REMARKS
DEFIANCE       CLOUDY    69  54  58 CALM      29.85F
FINDLAY        PTCLDY    70  54  56 SW6       29.87S
TOLEDO EXPRESS PTCLDY    69  58  67 S3        29.86S
TOLEDO EXEC    CLOUDY    70  56  61 W5        29.87S
LIMA           CLEAR     68  57  68 E5        29.86F
$$

OHZ009>014-019>023-028>033-038-089-270100-
   NORTHEAST OHIO

CITY           SKY/WX    TMP DP  RH WIND       PRES   REMARKS
CLE-HOPKINS    PTCLDY    66  53  63 NE7       29.90S
CLE-LAKEFRONT  PTCLDY    63  50  62 CALM      29.88S
CUY CO. ARPT   PTCLDY    64  52  63 NW5       29.89F
LORAIN-ELYRIA  PTCLDY    65  53  65 CALM      29.90R
ASHTABULA      CLOUDY    60  53  77 NW5       29.91R
AKRON-CANTON   MOCLDY    62  54  74 NE3       29.89F
WOOSTER        MOCLDY    64  56  75 CALM      29.91R
MANSFIELD      CLOUDY    65  58  78 CALM      29.91R
YOUNGSTOWN     MOCLDY    62  50  64 W7        29.90S
$$

OHZ042-051>053-060>062-070>072-077>081-270100-
  SOUTHWEST OHIO

CITY           SKY/WX    TMP DP  RH WIND       PRES   REMARKS
CINC-COVINGTON MOCLDY    74  62  66 S7        29.87R
CINC-LUNKEN    MOCLDY    75  62  64 S6        29.86S
HAMILTON       MOCLDY    76  61  59 VRB6      29.87R
DAYTON         MOCLDY    73  55  53 S6        29.87S
WRIGHT-PAT AFB NOT AVBL
DAYTON GENERAL PTCLDY    73  57  57 S8        29.86S
WILMINGTON     CLEAR     73  59  61 S7        29.87F
$$

OHZ036-037-039>041-045>050-054>059-063>069-073>076-082>088-270100-
  CENTRAL AND SOUTHEAST OHIO

CITY           SKY/WX    TMP DP  RH WIND       PRES   REMARKS
COLUMBUS       PTCLDY    73  55  53 W8        29.88R
OSU AIRPORT    CLEAR     73  56  54 W6        29.88S
BOLTON FIELD   CLEAR     72  59  63 SW3       29.89S
RICKENBACK AFB CLEAR     73  58  59 CALM      29.88S
NEWARK         PTCLDY    71  56  58 W6        29.88R
MARION         CLOUDY    70  55  59 VRB3      29.90S
LANCASTER      CLEAR     74  56  53 SW5       29.89S
ZANESVILLE     PTCLDY    71  54  54 CALM      29.89S
NEW PHILLY     NOT AVBL
$$




USA.gov is the U.S. government's official web portal to all federal, state and local government web resources and services.